Showing default

COSMOS 2273, 23004

Orbit data source: Space-Track

COSMOS 2273, 23004 is a payload satellite owned by VKS (CIS) in LEO that was launched on Sat, 12 Feb 1994 UTC via a TSIKLON-3 launch vehicle from the Plesetsk Missile And Space Complex (PKMTR). Payloads include a variety of satellites, spacecraft, and rockets equipped with specific instruments for various scientific and technological missions. These include communications satellites like Starlink; space stations such as the ISS; scientific satellites like the Hubble; Earth observation satellites from companies like Planet Labs, Umbra, and HawkEye 360; GPS; miniature CubeSats for education and research; and military/defense satellites.

Loading next visibility...
COSMOS 2273 details
Identifier
23004, 1994-011F
Orbit
LEO
Last TLE update21 hours ago
Origin
Flag of CISVKS (CIS)
ManufacturerNPO PM
MissionDefense Communications
Bus & MotorSTRELA-3, Unknown motor
Mass225 kg wet, 225 kg dry
Launch date (UTC)
1994-02-12 (31 years ago)
Launch vehicle
TSIKLON-3
Launch site
Plesetsk Missile And Space Complex (PKMTR)
Object type
Payload
Rocket body
Debris
Shape & HBRCyl, 1.6 m
Radar Cross Section1.257 m², Medium (>0.1 m² and < 1m²)

Expand to show TLE details & history

TLE from 21 hours ago
0 COSMOS 2273
1 23004U 94011F   25035.41777743  .00000020  00000-0  53411-4 0  9999
2 23004  82.5722 273.1485 0004320 235.8907 302.0778 12.62901333428113
Epoch: 2025-02-04T10:01Z
Definitive object data (Epoch: 2025-02-04T10:01:35.969Z)
Latitude1.95899°
Longitude167.67104°
Altitude1,411.703 km
Speed7.156 km/s
True Right ascension06h 11m 34s
True Declination1° 56' 54"
Sunlit
Object was in full shadow at TLE epoch
Visualization TLE readout
Latitude41.50715°
Longitude160.7817°
Altitude1,417.241 km
Speed7.156 km/s
Apparent Right ascension02h 02m 28s
Apparent Declination14° 10' 52"
Sunlit
Object is in full shadow
Visualization observer readout
Local Sidereal Time08:46:05
Azimuth287.797° WNW
Elevation0.947°
Doppler factor1
Orbital elements
Apogee altitude1,411.676 km
Perigee altitude1,404.948 km
Semi-major axis7,786.449 km
Eccentricity0.000432
Inclination82.5722°
RAAN273.1485°
Arg. of periapsis235.8907°
True anomaly302.03584°
Mean anomaly302.0778°
Eccentric anomaly302.05682°
Mean motion3.15889 °/min
BSTAR0.000053411
Orbital period113.96 mins
Loading maneuver chart data...
Loading historical data...
Loading historical data...
Loading historical data...
Loading historical data...
Loading historical data...
Loading historical data...
Loading historical data...

COSMOS 2273 Visibility forecast

Observer location: undefined°, undefined

Span
Click to sort rows by Start time (UTC) header in descending order
Start Az.
Max El. time (UTC)
Max El. Az.
Max El.
End time (UTC)
End Az.
15 mins2025-02-05 15:35:52.554Z157.074° SSE2025-02-05 15:42:52.554Z93.749° ESE36.091°2025-02-05 15:50:52.554Z19.231° NNE
13 mins2025-02-05 17:31:52.554Z228.131° WSW2025-02-05 17:37:52.554Z282.955° WNW30.307°2025-02-05 17:44:52.554Z348.805° N
9 mins2025-02-06 01:38:52.554Z29.379° NE2025-02-06 01:42:52.554Z61.046° ENE17.369°2025-02-06 01:47:52.554Z100.528° ESE
14 mins2025-02-06 03:32:52.554Z351.981° N2025-02-06 03:38:52.554Z338.388° N44.801°2025-02-06 03:46:52.554Z175.83° S
7 mins2025-02-06 05:29:52.554Z306.667° NW2025-02-06 05:32:52.554Z283.149° WNW15.292°2025-02-06 05:36:52.554Z252.735° W
|